Regional Weather Roundup
Issued by NWS

Home | Current Version | Previous Version | Graphics & Text | Print | Product List | Glossary On
Versions: 1 2 3 4 5 6 7 8 9 10 11 12 13 14 15 16 17 18 19 20 21 22 23 24 25 26 27 28 29 30 31 32 33 34 35 36 37 38 39 40 41 42 43 44 45 46 47 48 49 50
955
ASUS44 KJAN 211903
RWRMS

MISSISSIPPI HOURLY WEATHER ROUNDUP
NATIONAL WEATHER SERVICE JACKSON MS
100 PM CST SUN DEC 21 2014

NOTE: "FAIR: INDICATES FEW OR NO CLOUDS BELOW 12,000 FEET WITH NO
SIGNIFICANT WEATHER AND/OR OBSTRUCTIONS TO VISIBILITY.

MSZ001>002-007>008-010>013-018>021-025>028-034>036-212000-
NORTHWEST MISSISSIPPI

CITY           SKY/WX    TMP DP  RH WIND       PRES   REMARKS
CLARKSDALE     FAIR      54  36  50 E5        30.09F
CLEVELAND      FAIR      56  36  46 SE9       30.06F
GREENWOOD      SUNNY     58  40  51 E7        30.07F
GREENVILLE     SUNNY     55  37  50 S5        30.07F
GRENADA        FAIR      55  36  47 CALM      30.08F
OLIVE BRANCH   MOSUNNY   54  34  47 SE8       30.08F
OXFORD         FAIR      54  32  43 S5        30.09F
TUNICA         CLEAR     54  34  47 SE6       30.08F
$$

MSZ003>006-009-014>017-022>024-029>033-037>039-212000-
NORTHEAST MISSISSIPPI

CITY           SKY/WX    TMP DP  RH WIND       PRES   REMARKS
COLUMBUS AFB   CLOUDY    49  42  74 VRB2      30.10F
CORINTH        FAIR      55  34  44 E10       30.07F
GOLDN TRIANGLE CLOUDY    48  43  81 CALM      30.10F
STARKVILLE     CLOUDY    50  43  76 CALM      30.09F
TUPELO         SUNNY     54  36  50 VRB5      30.09F
$$

MSZ040-058-212000-
CENTRAL MISSISSIPPI

CITY           SKY/WX    TMP DP  RH WIND       PRES   REMARKS
JACKSON INTL   MOSUNNY   57  45  64 SE5       30.06F
JACKSON HAWKNS MOSUNNY   58  46  64 E6        30.06F
MERIDIAN KEY   CLOUDY    51  45  79 CALM      30.08F
MERIDIAN NAS   CLOUDY    48  44  86 CALM      30.10F
RAYMOND        FAIR      59  55  88 SE3       30.06F
VICKSBURG      SUNNY     58  46  64 CALM      30.07F
$$

MSZ059>079-212000-
SOUTH MISSISSIPPI

CITY           SKY/WX    TMP DP  RH WIND       PRES   REMARKS
HATTIESBURG    CLOUDY    53  47  79 CALM      30.09F
MCCOMB         CLOUDY    57  48  72 SE6       30.04F
NATCHEZ        MOSUNNY   57  48  72 SE5       30.05F
PINE BELT      CLOUDY    50  45  81 N5        30.08F
$$

MSZ080>082-212000-
COASTAL MISSISSIPPI

CITY           SKY/WX    TMP DP  RH WIND       PRES   REMARKS
BAY ST LOUIS   PTSUNNY   59  41  51 CALM      30.06F
BILOXI         CLOUDY    58  52  78 E5        30.06F
PASCAGOULA     CLOUDY    57  53  86 E3        30.06F
GULFPORT       CLOUDY    58  52  80 CALM      30.06F
$$



USA.gov is the U.S. government's official web portal to all federal, state and local government web resources and services.